ボリソフ彗星

C/2015 D4 ( Borisov )

English version
Home page
Updated on November 3, 2015

---------------------------------------------------------------------

・ プロフィール

発見日 2015年2月23日
発見光度 16.8等
発見者 Gennady Borisov (Nauchnij, Crimea)

・ 写真集

・ 軌道要素

Epoch 2014 Oct. 30.0 TT = JDT 2456960.5
T 2014 Oct. 28.23866 TT                                 MPCW
q   0.8617320            (2000.0)            P               Q
z  +0.0126664      Peri.  314.69826     +0.28483586     +0.54128879
 +/-0.0000171      Node   305.81043     -0.33138244     -0.71882155
e   0.9890849      Incl.   77.30182     -0.89947441     +0.43623620
From 43 observations 2015 Feb. 23-Oct. 15, mean residual 0".8.

・ 星図

・ 光度変化

        m1 = 11.5 + 5 logΔ + 10.0 log r

---------------------------------------------------------------------

軌道要素はM.P.E.C. 2015-U54に掲載されたものです。
星図はステラナビゲータ Ver.8 (アストロアーツ) で作成したものです。
光度グラフはComet for Windowsで作成したものです。

---------------------------------------------------------------------

Copyright(C) Seiichi Yoshida (comet@aerith.net). All rights reserved.